Simultaneous Nadir Overpasses (SNOs) Predictions

Prediction of SNOs between LANDSAT-8 and METOP-B Satellite Orbit:

Table of predicted SNOs for the next 14.0 days since TLE Epoch: 5/15/2015
Index Date (LANDSAT-8) Time (LANDSAT-8) Lat,Lon (LANDSAT-8) SZA (LANDSAT-8 ) Date (METOP-B) Time (METOP-B) Lat,Lon (METOP-B) SZA (METOP-B ) Distance(km) Time Diff (sec)
1 05/16/2015 05:20:41 -81.05, -42.10 115.91 05/16/2015 05:20:36 -81.04, -42.16 115.92 1.22 5
2 05/16/2015 06:10:06 81.08, 126.03 64.16 05/16/2015 06:11:14 81.08, 126.11 64.20 1.49 68
3 05/19/2015 00:05:30 81.00,-143.97 63.36 05/19/2015 00:04:18 81.00,-144.02 63.33 0.87 72
4 05/19/2015 00:54:55 -81.05, 24.29 116.55 05/19/2015 00:54:56 -81.05, 24.42 116.53 2.17 1
5 05/19/2015 01:43:45 81.72,-153.93 65.46 05/19/2015 01:44:58 81.35,-153.33 65.37 42.36 73
6 05/21/2015 19:39:44 81.01, -77.39 62.80 05/21/2015 19:38:38 81.01, -77.53 62.75 2.47 66
7 05/21/2015 20:29:10 -81.04, 90.55 117.17 05/21/2015 20:29:17 -81.04, 90.54 117.16 0.43 7
8 05/24/2015 15:13:58 81.01, -10.95 62.25 05/24/2015 15:12:57 81.01, -11.12 62.20 3.05 61
9 05/24/2015 16:03:24 -81.04, 157.03 117.71 05/24/2015 16:03:36 -81.04, 156.96 117.71 1.24 12
10 05/27/2015 10:48:14 81.01, 55.35 61.73 05/27/2015 10:47:17 81.00, 55.20 61.69 2.57 57




NCC Satellite Simultaneous Nadir Overpasses (SNOs) Prediction Service
